TimeEST,TemperatureF,Dew PointF,Humidity,Sea Level PressureIn,VisibilityMPH,Wind Direction,Wind SpeedMPH,Gust SpeedMPH,PrecipitationIn,Events,Conditions,WindDirDegrees,DateUTC
12:53 AM,27.0,9.0,47,29.75,10.0,North,18.4,32.2,N/A,,Overcast,360,2013-02-17 05:53:00
1:53 AM,27.0,9.0,47,29.73,10.0,North,17.3,23.0,N/A,,Overcast,10,2013-02-17 06:53:00
2:53 AM,26.1,8.1,47,29.73,10.0,North,16.1,25.3,N/A,,Overcast,360,2013-02-17 07:53:00
3:53 AM,25.0,9.0,51,29.71,10.0,North,13.8,27.6,N/A,,Mostly Cloudy,360,2013-02-17 08:53:00
4:53 AM,25.0,8.1,49,29.71,10.0,North,11.5,-,N/A,,Overcast,360,2013-02-17 09:53:00
5:53 AM,24.1,5.0,44,29.69,10.0,North,15.0,21.9,N/A,,Partly Cloudy,360,2013-02-17 10:53:00
6:53 AM,24.1,3.0,40,29.68,10.0,North,13.8,21.9,N/A,,Clear,350,2013-02-17 11:53:00
7:53 AM,24.1,1.0,37,29.68,10.0,North,15.0,21.9,N/A,,Clear,350,2013-02-17 12:53:00
8:53 AM,24.1,3.0,40,29.67,10.0,NNW,12.7,21.9,N/A,,Clear,340,2013-02-17 13:53:00
9:53 AM,25.0,3.0,39,29.66,10.0,North,9.2,-,N/A,,Clear,360,2013-02-17 14:53:00
10:53 AM,27.0,3.0,36,29.66,10.0,NW,16.1,28.8,N/A,,Clear,310,2013-02-17 15:53:00
11:53 AM,28.0,-0.0,30,29.67,10.0,WNW,20.7,32.2,N/A,,Clear,300,2013-02-17 16:53:00
1:53 PM,28.0,-0.0,30,29.68,10.0,NNW,23.0,31.1,N/A,,Clear,340,2013-02-17 18:53:00
2:53 PM,28.0,1.0,31,29.70,10.0,WNW,20.7,29.9,N/A,,Clear,300,2013-02-17 19:53:00
3:53 PM,27.0,1.9,34,29.72,10.0,WNW,19.6,32.2,N/A,,Clear,290,2013-02-17 20:53:00
4:53 PM,25.0,3.0,39,29.74,10.0,West,18.4,32.2,N/A,,Clear,280,2013-02-17 21:53:00
5:53 PM,21.9,1.0,40,29.79,10.0,WNW,20.7,33.4,N/A,,Clear,290,2013-02-17 22:53:00
6:53 PM,19.9,1.0,44,29.84,10.0,WNW,16.1,28.8,N/A,,Clear,290,2013-02-17 23:53:00
7:53 PM,19.0,1.0,46,29.86,10.0,WNW,17.3,26.5,N/A,,Clear,300,2013-02-18 00:53:00
8:53 PM,18.0,-0.0,45,29.89,10.0,West,15.0,21.9,N/A,,Clear,280,2013-02-18 01:53:00
9:53 PM,17.1,-0.0,47,29.91,10.0,West,10.4,20.7,N/A,,Clear,280,2013-02-18 02:53:00
10:53 PM,17.1,1.0,50,29.92,10.0,West,10.4,25.3,N/A,,Clear,280,2013-02-18 03:53:00